Temp
-17 -17 -16 -16 -16 -16 -15 -15 -15 -15 -14 -14 -14 -14 -13 -13 -13 -12 -12 -12 -12 -11 -11 -11 -12 -12 -12 -12 -12 -12 -12 -12 -12 -11 -11 -11 -11 -12 -12 -12 -12 -12 -13 -13 -13 -14 -14 -15 -15 -15 -15 -15 -15 -14
-18 -18 -18 -17 -17 -17 -17 -16 -16 -16 -16 -15 -15 -15 -14 -14 -14 -13 -13 -13 -12 -12 -11 -12 -12 -14 -13 -13 -12 -12 -13 -14 -13 -13 -12 -12 -12 -13 -13 -13 -13 -13 -13 -14 -14 -14 -15 -15 -15 -16 -15 -15 -15 -14
-20 -19 -19 -19 -19 -18 -18 -18 -17 -17 -17 -17 -16 -16 -16 -16 -15 -15 -15 -14 -14 -13 -13 -13 -14 -14 -14 -14 -14 -14 -15 -15 -14 -14 -13 -13 -14 -14 -14 -14 -14 -14 -15 -14 -14 -15 -15 -15 -16 -16 -15 -15 -15 -14
-20 -20 -20 -20 -20 -19 -19 -19 -18 -18 -18 -18 -17 -17 -17 -17 -17 -16 -16 -16 -15 -15 -14 -15 -15 -16 -16 -15 -15 -16 -16 -16 -15 -15 -15 -15 -15 -15 -14 -14 -14 -15 -15 -15 -15 -15 -15 -16 -16 -16 -16 -16 -15 -14
-22 -22 -21 -21 -20 -20 -20 -20 -19 -19 -19 -18 -18 -18 -18 -18 -17 -17 -17 -16 -16 -16 -15 -16 -16 -17 -16 -17 -17 -17 -16 -16 -16 -16 -15 -15 -15 -15 -15 -14 -15 -16 -16 -15 -15 -16 -16 -16 -16 -16 -16 -15 -15 -15
-22 -22 -22 -23 -23 -22 -21 -20 -20 -20 -20 -19 -19 -19 -18 -18 -18 -18 -18 -18 -17 -17 -16 -17 -18 -17 -17 -17 -17 -17 -17 -17 -16 -16 -16 -15 -16 -16 -14 -15 -16 -16 -16 -16 -16 -16 -16 -16 -16 -15 -15 -16 -15 -15
-23 -23 -23 -23 -23 -23 -23 -21 -20 -20 -20 -20 -19 -19 -19 -19 -19 -19 -18 -18 -18 -18 -17 -18 -18 -18 -18 -18 -17 -17 -17 -17 -17 -16 -16 -16 -16 -15 -16 -16 -16 -16 -17 -16 -16 -16 -16 -16 -16 -16 -16 -16 -15 -15
-24 -23 -23 -24 -24 -24 -24 -23 -22 -21 -20 -20 -20 -20 -20 -19 -19 -19 -18 -19 -19 -19 -18 -18 -18 -18 -18 -18 -18 -18 -18 -17 -17 -17 -17 -17 -17 -16 -16 -16 -16 -16 -16 -16 -16 -16 -15 -15 -15 -16 -16 -16 -15 -15
-24 -24 -24 -24 -24 -24 -24 -23 -23 -22 -21 -21 -20 -20 -20 -19 -19 -19 -19 -20 -19 -19 -19 -18 -18 -18 -18 -18 -18 -18 -18 -18 -18 -18 -17 -17 -17 -17 -16 -16 -16 -16 -16 -16 -16 -16 -16 -15 -15 -16 -15 -15 -15 -15
-24 -24 -24 -24 -24 -24 -24 -24 -23 -22 -22 -21 -21 -20 -20 -20 -20 -20 -20 -20 -19 -19 -19 -19 -19 -19 -19 -18 -18 -18 -18 -18 -18 -17 -17 -17 -17 -16 -16 -16 -16 -16 -16 -16 -16 -16 -15 -15 -15 -15 -15 -16 -15 -15
-24 -24 -24 -24 -24 -24 -24 -23 -23 -23 -22 -22 -21 -21 -22 -21 -21 -21 -20 -20 -19 -19 -19 -20 -19 -19 -19 -18 -18 -18 -18 -18 -18 -17 -17 -17 -17 -16 -16 -17 -16 -16 -16 -16 -16 -16 -16 -15 -15 -15 -15 -15 -15 -15
-24 -24 -24 -24 -24 -24 -24 -23 -23 -23 -23 -23 -23 -23 -22 -21 -21 -21 -20 -20 -19 -19 -19 -19 -19 -19 -18 -18 -18 -18 -18 -18 -18 -17 -17 -17 -17 -17 -16 -16 -16 -16 -16 -16 -16 -16 -16 -16 -16 -16 -16 -15 -15 -14
-24 -24 -24 -24 -24 -24 -24 -23 -23 -23 -23 -23 -22 -22 -22 -21 -21 -20 -20 -20 -20 -19 -19 -19 -19 -18 -18 -18 -18 -17 -17 -17 -17 -17 -17 -17 -17 -16 -16 -16 -16 -16 -16 -16 -16 -16 -16 -16 -16 -16 -15 -15 -15 -15
-24 -24 -24 -24 -24 -23 -24 -23 -23 -23 -22 -22 -22 -21 -21 -21 -20 -20 -20 -20 -19 -19 -19 -19 -18 -18 -18 -18 -18 -17 -17 -17 -17 -17 -17 -17 -17 -16 -17 -16 -16 -16 -16 -16 -16 -16 -15 -15 -15 -15 -15 -15 -15 -15
-24 -24 -23 -23 -23 -23 -23 -23 -22 -22 -21 -21 -21 -21 -20 -20 -20 -20 -20 -20 -19 -19 -19 -18 -19 -18 -18 -17 -17 -17 -17 -17 -17 -17 -17 -17 -16 -17 -17 -16 -16 -16 -16 -16 -16 -16 -16 -16 -16 -15 -15 -15 -15 -15
-23 -23 -23 -23 -23 -22 -22 -22 -22 -21 -21 -21 -21 -21 -20 -20 -20 -20 -19 -19 -19 -19 -18 -18 -18 -18 -17 -17 -17 -17 -17 -17 -17 -17 -17 -17 -17 -17 -17 -16 -16 -16 -16 -16 -16 -16 -16 -16 -16 -16 -16 -16 -15 -15
-23 -22 -22 -22 -21 -21 -21 -21 -20 -20 -20 -20 -20 -20 -20 -20 -20 -20 -19 -19 -19 -19 -18 -18 -18 -18 -18 -17 -17 -17 -17 -17 -17 -17 -17 -17 -17 -17 -17 -16 -16 -16 -16 -16 -16 -16 -16 -16 -16 -16 -16 -16 -16 -16
-22 -22 -21 -21 -21 -21 -21 -20 -20 -20 -20 -20 -20 -20 -20 -20 -20 -19 -19 -19 -18 -18 -18 -18 -18 -18 -18 -17 -17 -17 -17 -18 -17 -17 -17 -17 -17 -17 -17 -17 -17 -16 -16 -16 -16 -16 -16 -16 -16 -16 -16 -16 -16 -16
-21 -21 -21 -21 -21 -21 -20 -20 -20 -19 -19 -20 -20 -20 -19 -19 -19 -19 -19 -18 -18 -18 -18 -18 -18 -18 -18 -18 -18 -17 -17 -17 -17 -17 -17 -17 -17 -17 -17 -17 -17 -17 -17 -17 -17 -17 -17 -17 -17 -17 -17 -17 -16 -16
-21 -21 -21 -21 -21 -21 -21 -20 -20 -20 -20 -20 -20 -20 -19 -19 -19 -19 -18 -18 -18 -18 -18 -18 -18 -18 -18 -17 -17 -17 -17 -17 -17 -17 -17 -17 -17 -17 -17 -17 -17 -17 -17 -17 -17 -18 -18 -18 -18 -18 -18 -17 -17 -17
-21 -21 -21 -21 -21 -21 -21 -20 -20 -20 -20 -20 -20 -20 -19 -19 -18 -18 -18 -18 -18 -18 -18 -18 -18 -18 -18 -18 -18 -17 -17 -17 -17 -17 -17 -17 -17 -17 -17 -17 -17 -17 -17 -18 -18 -19 -19 -19 -19 -18 -18 -18 -18 -18
-21 -21 -21 -21 -21 -21 -21 -21 -20 -20 -20 -20 -20 -19 -19 -19 -19 -19 -19 -18 -18 -18 -18 -18 -18 -18 -18 -18 -18 -18 -17 -17 -17 -17 -17 -17 -17 -17 -17 -17 -17 -17 -17 -17 -18 -19 -19 -19 -19 -20 -20 -19 -19 -19
-21 -21 -21 -21 -21 -20 -21 -20 -20 -20 -20 -20 -19 -19 -19 -19 -19 -19 -18 -18 -18 -18 -18 -18 -18 -18 -18 -18 -18 -18 -17 -17 -17 -17 -17 -17 -17 -17 -17 -17 -17 -17 -17 -17 -18 -18 -19 -19 -20 -20 -20 -20 -20 -20
-21 -21 -21 -20 -20 -20 -20 -20 -20 -19 -20 -19 -19 -19 -19 -19 -19 -19 -18 -18 -18 -18 -18 -18 -18 -18 -18 -18 -18 -17 -17 -16 -17 -17 -17 -17 -17 -17 -17 -17 -17 -17 -17 -17 -18 -18 -18 -19 -20 -20 -20 -20 -20 -20
-20 -20 -20 -20 -20 -20 -19 -20 -20 -19 -19 -19 -19 -19 -19 -19 -18 -18 -18 -18 -18 -18 -18 -18 -18 -17 -17 -17 -17 -17 -17 -17 -17 -17 -17 -17 -17 -17 -17 -17 -17 -17 -17 -17 -18 -18 -18 -18 -19 -20 -20 -21 -20 -20
-20 -20 -20 -20 -20 -19 -19 -19 -19 -19 -19 -19 -18 -18 -18 -18 -18 -19 -19 -18 -18 -18 -17 -17 -17 -17 -17 -17 -17 -17 -17 -17 -17 -17 -17 -17 -17 -17 -17 -17 -17 -17 -18 -18 -18 -18 -18 -18 -18 -19 -19 -20 -20 -20
-19 -19 -19 -19 -19 -19 -19 -19 -19 -19 -19 -18 -18 -18 -18 -18 -18 -19 -18 -18 -17 -17 -17 -17 -17 -17 -17 -17 -17 -17 -17 -17 -17 -17 -17 -17 -18 -17 -17 -18 -18 -18 -18 -18 -18 -18 -18 -18 -18 -18 -18 -19 -19 -19
-19 -19 -19 -19 -19 -19 -19 -18 -18 -18 -19 -19 -19 -19 -19 -19 -18 -18 -18 -17 -17 -17 -17 -17 -17 -17 -17 -17 -17 -17 -17 -17 -17 -17 -18 -18 -18 -18 -18 -18 -18 -18 -18 -18 -18 -18 -18 -18 -18 -18 -18 -18 -19 -19
-19 -19 -18 -18 -18 -18 -18 -18 -18 -18 -18 -18 -18 -18 -18 -18 -18 -18 -18 -18 -17 -17 -17 -17 -17 -17 -17 -17 -17 -17 -17 -17 -18 -18 -18 -18 -18 -18 -18 -18 -18 -18 -18 -19 -19 -19 -18 -19 -19 -19 -19 -19 -19 -19
-19 -19 -19 -18 -18 -18 -18 -18 -18 -18 -18 -18 -18 -18 -18 -17 -17 -17 -17 -17 -17 -17 -17 -17 -17 -17 -17 -17 -18 -17 -17 -18 -18 -18 -18 -18 -19 -19 -19 -19 -19 -19 -19 -19 -19 -19 -19 -19 -19 -19 -19 -19 -19 -19
-18 -18 -18 -18 -18 -18 -18 -18 -18 -17 -17 -17 -17 -17 -17 -17 -17 -17 -17 -17 -17 -17 -17 -17 -17 -17 -17 -17 -18 -18 -18 -18 -18 -18 -18 -18 -18 -19 -19 -19 -19 -19 -19 -19 -19 -19 -19 -19 -19 -19 -19 -19 -19 -19
-18 -18 -18 -18 -18 -17 -17 -17 -17 -17 -17 -17 -17 -17 -17 -17 -17 -17 -17 -17 -17 -17 -17 -17 -17 -17 -17 -17 -18 -18 -18 -18 -18 -18 -18 -19 -19 -19 -19 -19 -19 -19 -19 -19 -19 -19 -19 -19 -19 -19 -19 -19 -19 -19
-17 -17 -17 -17 -17 -17 -17 -17 -17 -17 -17 -17 -17 -17 -17 -17 -17 -17 -17 -17 -17 -17 -17 -17 -18 -18 -18 -18 -18 -18 -18 -18 -18 -18 -18 -18 -19 -19 -19 -19 -19 -19 -19 -19 -19 -19 -19 -19 -19 -19 -19 -20 -20 -19
Height
5623 5627 5631 5635 5640 5645 5650 5654 5659 5664 5669 5674 5678 5683 5686 5690 5695 5700 5702 5706 5710 5716 5722 5722 5723 5725 5729 5732 5733 5735 5737 5737 5740 5742 5743 5744 5744 5744 5744 5743 5742 5741 5740 5738 5736 5735 5735 5734 5732 5733 5730 5728 5725 5724
5605 5609 5612 5617 5621 5626 5632 5636 5642 5647 5653 5658 5662 5666 5670 5674 5679 5684 5687 5690 5694 5701 5709 5707 5709 5709 5715 5716 5720 5723 5724 5725 5727 5729 5731 5731 5731 5732 5734 5734 5732 5731 5730 5730 5731 5729 5726 5724 5724 5723 5722 5720 5719 5718
5588 5591 5595 5599 5604 5609 5614 5620 5625 5630 5636 5641 5646 5651 5655 5659 5664 5669 5671 5674 5679 5685 5691 5692 5694 5692 5698 5703 5705 5711 5711 5712 5714 5715 5718 5720 5722 5724 5724 5724 5722 5721 5722 5722 5721 5721 5719 5719 5717 5715 5714 5713 5711 5709
5571 5574 5577 5582 5587 5593 5598 5604 5609 5615 5621 5626 5631 5636 5641 5646 5651 5656 5659 5662 5667 5671 5676 5682 5678 5680 5684 5689 5693 5697 5698 5700 5702 5705 5708 5710 5713 5713 5714 5713 5713 5714 5714 5713 5713 5714 5712 5711 5710 5707 5705 5704 5702 5701
5554 5556 5558 5562 5568 5575 5582 5589 5595 5601 5608 5613 5619 5624 5630 5635 5640 5644 5648 5652 5656 5660 5666 5667 5666 5668 5673 5677 5682 5684 5688 5690 5691 5694 5699 5702 5703 5704 5703 5704 5707 5707 5705 5705 5705 5705 5703 5703 5701 5699 5697 5697 5694 5693
5540 5541 5544 5547 5550 5556 5565 5573 5581 5588 5594 5601 5607 5613 5619 5624 5629 5634 5639 5642 5645 5648 5651 5656 5655 5658 5663 5669 5672 5675 5678 5681 5684 5687 5690 5693 5694 5694 5696 5699 5701 5698 5696 5696 5697 5695 5694 5694 5693 5691 5691 5689 5686 5685
5528 5530 5532 5535 5538 5542 5548 5556 5566 5575 5582 5589 5596 5602 5608 5613 5619 5625 5630 5631 5634 5637 5641 5645 5648 5652 5657 5661 5664 5668 5672 5675 5677 5680 5682 5684 5685 5686 5690 5694 5690 5688 5690 5690 5689 5690 5689 5687 5687 5686 5685 5682 5680 5679
5518 5519 5521 5524 5528 5531 5536 5543 5552 5562 5570 5578 5586 5592 5599 5605 5611 5616 5619 5622 5626 5630 5634 5639 5642 5648 5652 5656 5659 5662 5665 5667 5670 5673 5676 5678 5680 5681 5685 5684 5683 5685 5685 5684 5684 5683 5682 5681 5679 5679 5678 5676 5675 5673
5511 5512 5514 5516 5519 5523 5528 5536 5544 5552 5560 5569 5577 5584 5590 5597 5604 5607 5611 5615 5620 5626 5628 5634 5637 5643 5647 5651 5654 5657 5660 5662 5666 5668 5671 5673 5674 5675 5677 5678 5679 5680 5680 5679 5678 5677 5675 5674 5674 5673 5672 5671 5669 5667
5505 5507 5510 5512 5514 5518 5524 5531 5539 5548 5555 5562 5570 5577 5585 5591 5596 5602 5606 5610 5615 5619 5625 5629 5633 5639 5644 5648 5651 5655 5657 5659 5662 5665 5667 5668 5669 5671 5672 5673 5675 5675 5675 5674 5673 5671 5668 5668 5667 5666 5667 5666 5665 5663
5501 5504 5507 5509 5513 5517 5523 5530 5538 5545 5552 5558 5565 5572 5579 5585 5591 5597 5603 5607 5612 5618 5622 5626 5631 5635 5641 5645 5648 5651 5654 5657 5658 5662 5663 5664 5666 5667 5669 5670 5670 5670 5670 5669 5669 5668 5665 5663 5662 5662 5662 5662 5661 5658
5498 5501 5505 5509 5513 5518 5524 5531 5538 5545 5552 5559 5565 5570 5577 5584 5591 5597 5602 5607 5610 5613 5618 5623 5630 5635 5639 5643 5646 5650 5652 5655 5657 5659 5661 5663 5665 5664 5665 5666 5666 5666 5666 5665 5665 5664 5663 5661 5660 5659 5659 5657 5656 5654
5496 5500 5504 5509 5514 5520 5526 5533 5539 5548 5556 5562 5569 5575 5580 5586 5591 5595 5602 5607 5610 5613 5618 5623 5629 5633 5637 5641 5644 5649 5651 5653 5656 5658 5661 5663 5662 5662 5662 5661 5662 5661 5662 5662 5661 5661 5660 5659 5657 5655 5654 5653 5652 5650
5497 5501 5506 5512 5517 5523 5529 5536 5542 5550 5559 5567 5574 5578 5583 5588 5593 5597 5601 5606 5612 5616 5621 5626 5630 5633 5638 5641 5643 5647 5651 5653 5655 5657 5659 5660 5661 5660 5659 5660 5660 5660 5659 5660 5659 5658 5657 5656 5654 5652 5649 5648 5648 5648
5500 5505 5510 5516 5522 5529 5536 5544 5551 5558 5564 5570 5577 5582 5587 5591 5596 5601 5606 5611 5615 5619 5623 5628 5631 5635 5638 5641 5644 5647 5650 5653 5655 5656 5657 5658 5658 5659 5658 5658 5658 5659 5658 5658 5657 5655 5654 5653 5651 5649 5646 5644 5643 5643
5506 5512 5519 5525 5532 5539 5546 5554 5561 5567 5573 5577 5582 5587 5591 5595 5599 5603 5609 5614 5618 5622 5626 5630 5633 5637 5639 5642 5645 5647 5650 5652 5652 5653 5656 5656 5656 5656 5657 5657 5657 5656 5655 5655 5654 5653 5651 5650 5648 5646 5644 5642 5639 5638
5516 5522 5529 5536 5542 5550 5557 5565 5568 5573 5580 5584 5588 5591 5595 5599 5603 5608 5613 5617 5621 5624 5628 5631 5635 5638 5641 5643 5646 5648 5650 5653 5653 5655 5654 5654 5654 5655 5655 5654 5653 5652 5651 5650 5649 5648 5647 5645 5643 5641 5639 5638 5636 5633
5527 5533 5540 5548 5552 5555 5560 5566 5574 5580 5585 5590 5594 5597 5600 5603 5606 5611 5615 5619 5623 5627 5630 5634 5637 5640 5643 5646 5647 5648 5650 5651 5653 5653 5653 5653 5653 5652 5652 5651 5649 5648 5646 5644 5642 5640 5638 5636 5634 5633 5631 5630 5629 5627
5541 5548 5553 5557 5561 5565 5573 5579 5583 5585 5590 5597 5600 5602 5605 5608 5611 5615 5618 5622 5625 5629 5633 5636 5640 5642 5645 5646 5647 5647 5649 5651 5651 5652 5651 5650 5650 5649 5648 5646 5645 5643 5641 5638 5635 5632 5629 5627 5624 5621 5619 5617 5617 5617
5553 5559 5563 5568 5572 5575 5580 5585 5588 5592 5597 5602 5604 5607 5609 5613 5617 5620 5623 5626 5629 5633 5635 5639 5642 5644 5646 5647 5648 5649 5650 5651 5650 5650 5649 5648 5646 5645 5644 5641 5639 5637 5634 5631 5627 5623 5619 5616 5614 5611 5609 5607 5605 5604
5566 5571 5575 5578 5581 5585 5589 5592 5597 5600 5604 5607 5610 5613 5616 5618 5620 5623 5626 5629 5632 5635 5638 5641 5643 5644 5646 5647 5648 5649 5649 5650 5649 5647 5645 5644 5642 5641 5639 5637 5634 5632 5629 5625 5621 5617 5613 5610 5607 5603 5600 5598 5597 5595
5578 5581 5584 5587 5589 5593 5596 5599 5603 5606 5611 5614 5616 5619 5622 5624 5626 5628 5630 5633 5635 5638 5641 5643 5645 5646 5646 5647 5647 5647 5647 5646 5646 5645 5644 5642 5640 5638 5635 5633 5631 5628 5625 5621 5617 5613 5609 5605 5601 5598 5594 5591 5588 5587
5586 5588 5591 5594 5597 5600 5604 5606 5609 5613 5617 5619 5621 5623 5626 5628 5630 5633 5635 5637 5640 5643 5644 5646 5647 5648 5648 5648 5648 5648 5648 5646 5646 5644 5642 5640 5638 5636 5634 5632 5629 5626 5622 5618 5614 5609 5604 5600 5595 5592 5588 5585 5582 5580
5595 5597 5599 5600 5604 5606 5609 5612 5615 5619 5622 5625 5627 5629 5632 5634 5637 5638 5640 5642 5644 5645 5646 5647 5647 5648 5649 5649 5649 5649 5647 5647 5646 5644 5642 5640 5638 5636 5634 5631 5628 5624 5621 5617 5612 5608 5603 5597 5592 5587 5584 5580 5576 5574
5603 5605 5607 5608 5611 5613 5616 5618 5621 5623 5627 5630 5632 5634 5636 5639 5640 5642 5644 5645 5646 5647 5648 5649 5650 5650 5651 5651 5650 5649 5647 5646 5644 5642 5641 5639 5637 5635 5632 5629 5626 5623 5619 5615 5611 5606 5601 5596 5591 5586 5581 5577 5574 5571
5608 5610 5613 5614 5617 5620 5622 5625 5627 5629 5632 5635 5637 5639 5641 5643 5645 5646 5647 5648 5649 5650 5651 5651 5652 5652 5652 5651 5651 5649 5648 5646 5644 5642 5639 5637 5635 5632 5630 5627 5624 5621 5618 5614 5610 5606 5601 5596 5591 5586 5582 5577 5573 5570
5617 5618 5619 5622 5624 5627 5629 5632 5634 5636 5638 5640 5642 5644 5646 5648 5649 5650 5650 5651 5652 5653 5654 5654 5654 5654 5653 5651 5650 5648 5647 5645 5643 5641 5639 5636 5633 5630 5628 5625 5623 5620 5617 5614 5610 5605 5600 5596 5591 5586 5582 5578 5574 5570
5626 5627 5628 5630 5632 5634 5636 5638 5640 5642 5644 5646 5647 5648 5649 5651 5653 5653 5654 5654 5654 5655 5655 5656 5655 5655 5653 5652 5650 5649 5646 5645 5643 5640 5638 5635 5632 5629 5626 5623 5621 5618 5615 5611 5607 5603 5599 5595 5591 5587 5582 5578 5574 5570
5634 5635 5636 5638 5639 5641 5642 5644 5646 5648 5650 5651 5652 5653 5654 5656 5657 5657 5657 5657 5657 5657 5657 5656 5655 5654 5653 5651 5649 5647 5645 5643 5641 5638 5636 5633 5630 5627 5624 5621 5618 5615 5611 5608 5604 5601 5597 5594 5590 5586 5582 5578 5574 5570
5643 5644 5646 5647 5648 5650 5651 5653 5654 5655 5656 5657 5658 5658 5659 5660 5660 5660 5660 5659 5659 5658 5657 5657 5655 5654 5652 5650 5648 5645 5643 5640 5637 5634 5632 5629 5626 5624 5620 5617 5614 5612 5609 5606 5602 5599 5596 5593 5589 5585 5581 5577 5572 5568
5653 5654 5655 5656 5657 5657 5658 5659 5660 5661 5662 5662 5663 5663 5663 5662 5662 5662 5662 5661 5660 5659 5658 5656 5654 5653 5650 5648 5645 5643 5640 5637 5634 5631 5629 5626 5623 5620 5617 5614 5611 5608 5605 5603 5600 5597 5593 5589 5585 5581 5577 5574 5570 5566
5660 5660 5662 5664 5665 5665 5665 5666 5666 5667 5667 5667 5667 5667 5666 5665 5665 5664 5663 5662 5661 5659 5657 5655 5653 5651 5648 5646 5644 5641 5639 5636 5633 5630 5627 5624 5621 5618 5615 5612 5608 5605 5602 5599 5597 5594 5591 5587 5583 5579 5575 5571 5568 5563
5667 5668 5669 5670 5671 5672 5672 5672 5671 5671 5671 5670 5670 5669 5668 5667 5666 5665 5663 5662 5660 5658 5656 5654 5652 5649 5647 5645 5642 5640 5637 5634 5631 5628 5624 5621 5618 5615 5612 5609 5606 5603 5600 5597 5594 5591 5588 5585 5581 5577 5573 5569 5565 5560
Wind_Speed
57 57 56 56 55 55 55 54 53 52 52 52 52 52 53 53 53 53 53 54 53 52 51 52 53 53 52 52 51 50 50 50 48 47 46 46 44 42 41 40 41 42 40 38 36 34 34 34 36 36 37 35 31 26
53 53 54 54 54 54 53 53 52 51 50 50 50 50 50 50 51 50 50 51 52 52 51 54 54 50 52 55 54 52 49 46 47 47 48 48 46 41 36 35 37 38 37 35 33 33 33 35 34 34 32 30 24 26
48 49 49 49 49 50 49 48 47 47 46 46 46 46 46 45 45 45 47 47 48 47 48 50 49 53 52 50 53 52 47 46 48 49 47 45 42 37 34 32 34 34 31 32 33 30 32 29 29 27 29 31 30 28
52 54 54 52 49 48 46 45 44 43 42 41 42 43 43 42 41 40 40 42 42 44 44 43 47 47 47 47 47 46 43 45 45 43 42 38 33 32 31 33 33 30 30 31 30 29 30 27 28 33 32 29 28 26
36 40 44 52 56 52 48 44 44 43 41 40 40 40 41 39 38 37 38 39 40 40 40 43 44 42 42 40 37 39 39 38 38 38 35 30 28 29 31 31 28 26 30 31 31 30 31 29 29 30 29 26 29 26
34 35 37 37 42 48 51 48 44 40 41 42 41 40 38 37 38 39 37 37 36 37 37 35 36 35 36 29 29 31 32 31 30 29 28 27 28 30 29 26 23 27 32 31 27 28 28 27 25 28 27 26 25 23
31 31 32 33 33 36 42 46 45 41 39 39 40 40 39 38 38 36 34 36 35 34 33 27 27 28 25 23 24 26 26 26 27 27 28 27 26 30 24 19 24 27 22 22 25 24 21 21 24 23 20 20 18 21
27 27 27 28 28 31 36 39 41 41 39 36 36 36 36 36 36 35 36 36 32 28 25 22 22 21 21 21 21 22 23 24 26 25 22 22 22 22 17 19 18 17 20 24 23 24 23 22 20 18 19 18 18 19
20 19 19 20 23 25 30 33 33 34 34 33 33 33 34 34 34 34 30 24 23 21 23 21 19 20 21 24 24 23 22 21 20 19 18 17 20 20 17 19 19 20 20 19 19 18 19 20 19 17 17 17 17 20
16 14 14 15 16 17 23 27 28 28 28 29 30 30 31 28 27 22 21 23 22 23 22 20 21 20 18 19 18 18 17 16 17 14 13 13 14 15 16 17 16 12 11 11 14 20 22 20 23 26 24 21 20 21
14 13 13 13 15 18 21 23 24 23 21 21 21 20 22 24 26 25 19 21 21 19 20 25 22 21 19 19 17 15 13 12 11 12 11 12 14 15 13 11 9 9 10 14 15 19 9 12 11 8 11 17 17 16
15 14 14 16 17 20 22 23 23 23 22 22 23 26 28 27 25 24 21 15 16 20 22 23 22 20 21 19 16 13 10 9 9 8 8 7 8 10 10 10 13 13 14 15 13 9 12 10 10 9 11 14 14 18
14 15 18 20 22 24 26 26 29 33 31 27 21 21 25 25 23 20 15 11 13 17 21 26 23 21 20 18 14 11 8 5 15 8 9 8 7 7 10 7 9 9 10 8 9 12 12 8 10 10 12 12 11 9
19 20 22 24 25 27 32 39 39 37 34 33 27 26 28 21 23 20 20 18 21 17 19 23 19 19 15 13 13 18 13 10 13 13 12 8 7 4 1 1 2 1 1 1 3 4 6 6 8 13 17 18 15 13
21 23 26 31 37 39 40 42 44 31 26 26 31 25 24 19 17 18 12 21 19 18 18 18 17 15 16 19 13 15 13 9 9 11 8 7 8 7 4 3 2 2 4 4 5 7 9 10 10 9 11 14 17 19
30 36 39 37 38 39 39 37 32 26 24 21 20 18 15 13 13 17 22 20 19 18 16 16 13 15 16 14 14 16 12 8 4 7 6 4 4 3 4 6 7 7 9 10 9 10 12 12 14 14 14 15 15 14
37 36 40 41 44 48 43 36 32 29 22 24 25 22 21 19 19 21 22 20 17 17 17 15 16 14 11 11 12 13 12 9 7 2 2 4 6 6 7 9 10 12 13 15 17 18 20 20 20 21 20 19 20 19
40 44 48 50 37 31 33 38 37 33 23 21 21 19 19 20 22 22 22 21 19 19 18 15 16 12 11 6 6 12 10 10 7 4 6 6 7 8 12 15 17 19 21 24 26 27 27 27 27 27 27 25 23 22
48 48 41 40 41 34 34 33 31 29 27 20 18 18 19 16 18 22 22 23 22 18 17 15 10 12 9 2 3 10 10 6 4 5 6 9 12 14 16 18 20 22 23 24 26 27 28 28 28 28 29 29 28 27
45 42 38 33 31 31 31 30 25 22 25 22 18 15 15 24 19 16 18 18 15 14 19 17 13 9 5 5 4 4 2 3 7 9 10 12 14 14 16 17 18 19 21 24 24 23 22 21 20 21 23 25 25 26
34 30 32 27 25 26 24 24 22 23 23 20 20 17 16 20 18 19 17 16 15 15 13 10 8 3 3 2 1 2 4 5 6 8 9 9 9 9 11 14 15 17 18 19 20 22 23 23 24 24 24 24 23 22
34 30 28 25 25 25 22 21 22 22 21 17 17 18 19 17 20 22 21 17 15 13 11 7 4 2 0 1 2 4 5 5 5 6 6 7 8 10 12 14 17 18 19 21 22 22 22 22 21 20 20 20 22 22
27 26 18 19 20 21 21 22 22 22 23 24 21 19 19 20 19 17 15 12 10 8 6 5 5 5 3 3 5 4 4 5 6 8 7 8 10 11 13 15 16 18 19 20 21 22 24 24 23 21 20 20 18 19
25 24 23 20 23 24 24 20 21 22 19 22 21 21 20 18 15 13 11 11 9 9 8 6 5 7 8 6 5 5 4 6 8 8 8 9 10 11 13 14 15 17 19 19 20 21 22 22 22 20 19 18 16 16
18 17 18 20 22 21 20 22 24 24 21 20 19 18 16 13 12 12 12 11 10 9 10 10 9 8 7 8 7 6 9 11 11 10 10 11 12 13 13 14 15 17 18 19 21 23 24 23 23 21 18 16 15 13
26 28 26 25 22 20 18 22 22 20 18 17 16 16 16 15 14 14 14 14 12 10 9 9 7 7 6 6 6 5 8 11 10 10 12 13 13 14 15 17 18 18 19 20 21 22 23 25 25 23 21 19 16 15
23 24 25 24 23 23 22 21 19 18 18 18 18 16 14 14 15 13 11 11 9 9 8 7 6 5 6 8 9 9 10 11 10 10 12 13 13 13 14 15 18 19 20 21 21 20 22 23 25 26 26 24 21 19
23 24 25 24 23 23 22 21 21 20 18 15 13 14 17 16 12 9 9 8 6 6 6 6 5 5 7 8 8 8 9 10 10 11 12 13 13 14 15 17 18 19 19 20 21 22 22 22 22 24 25 25 25 23
24 23 24 23 23 21 21 20 20 19 19 18 17 16 14 12 12 10 8 5 4 5 5 7 8 8 8 10 11 11 11 12 13 14 14 14 14 15 15 17 17 18 18 19 21 23 22 22 22 25 25 24 24 24
29 28 27 26 24 23 23 21 20 18 17 17 17 16 14 11 9 7 5 4 4 5 6 7 8 9 10 11 13 15 16 17 17 17 17 16 16 17 18 18 18 19 19 18 19 20 21 20 21 23 24 22 23 25
23 21 19 19 19 21 20 20 21 19 17 16 14 12 10 9 9 9 9 7 6 6 8 11 12 12 13 14 15 16 17 17 18 18 18 19 19 19 18 18 19 19 19 19 18 19 20 21 24 26 26 22 22 25
21 21 20 19 20 21 20 19 17 16 14 12 11 10 9 7 7 6 6 7 8 9 10 11 13 13 14 14 15 16 17 18 18 19 19 19 19 19 19 19 19 19 20 19 19 19 19 22 24 25 24 23 25 27
22 23 23 20 18 17 16 15 14 12 10 10 9 9 9 8 8 9 9 10 11 11 12 13 14 15 16 17 17 17 17 17 19 20 20 21 20 19 18 18 18 18 18 18 18 18 20 21 23 24 24 25 26 27
Wind_Direction
261 261 260 260 259 258 257 256 256 256 256 256 256 256 256 256 255 255 256 256 256 255 255 256 257 256 256 257 257 258 260 263 266 267 268 270 272 274 276 280 284 285 285 283 283 283 282 284 283 285 290 301 288 284
260 260 259 259 258 258 257 256 256 255 255 254 254 255 254 255 255 255 255 255 256 256 255 253 255 255 254 254 255 257 258 259 261 264 266 268 269 272 277 280 280 280 281 282 281 279 280 283 288 288 291 289 289 293
261 260 259 258 257 256 255 254 252 252 250 250 250 248 248 247 248 249 249 250 251 251 250 250 253 253 252 252 252 253 257 258 257 258 261 265 267 272 276 274 274 274 279 281 280 280 279 284 287 282 279 283 294 293
265 262 259 257 256 254 252 248 246 245 245 244 241 239 238 240 241 242 243 247 248 248 247 248 250 252 253 253 253 253 253 255 257 259 261 264 266 265 267 269 269 272 276 277 284 284 281 276 273 285 289 284 288 288
267 263 259 255 251 248 246 245 243 239 238 238 237 236 235 235 237 240 244 245 249 248 245 249 252 254 253 254 251 251 253 254 256 258 259 256 254 256 259 264 270 272 276 279 279 281 277 274 277 279 279 286 285 285
272 265 258 259 252 243 240 239 238 237 236 232 231 233 233 236 236 236 242 245 249 251 250 247 252 250 251 253 251 250 248 248 253 252 249 248 251 253 260 261 272 277 272 272 273 278 280 269 270 274 284 291 283 282
270 261 255 252 251 247 235 229 229 228 230 231 232 231 232 233 233 237 241 246 248 253 253 248 245 248 247 243 241 243 243 241 240 241 244 248 248 252 262 273 271 267 269 268 271 278 281 281 282 282 286 279 275 283
267 259 251 243 245 241 233 221 217 219 220 222 226 229 230 229 231 238 242 247 251 250 247 239 233 235 230 222 220 225 231 232 238 240 244 248 251 258 263 264 260 259 269 276 283 284 282 281 281 277 287 290 284 296
256 249 246 247 241 233 224 213 209 207 209 214 218 222 228 232 235 239 241 241 236 227 226 214 215 212 216 216 220 224 232 237 239 244 243 249 253 257 250 256 261 267 275 278 279 282 281 277 270 269 283 287 294 305
242 240 243 236 221 214 211 201 198 204 206 210 219 224 227 227 226 223 213 211 214 216 208 194 198 196 203 208 218 224 228 235 241 244 243 244 256 257 257 263 272 269 264 265 288 305 296 280 276 265 274 295 296 299
232 223 220 208 197 193 189 183 182 188 196 203 205 196 184 182 186 188 192 206 210 208 195 201 201 202 199 196 204 216 218 227 227 226 230 243 251 259 255 258 250 277 291 295 291 314 320 304 300 298 272 272 291 308
203 200 195 185 182 174 169 168 169 165 163 161 164 164 169 171 176 176 186 191 194 194 193 194 188 187 190 192 194 188 188 173 172 188 208 237 263 263 262 259 260 274 284 291 290 309 315 298 306 295 285 285 299 303
191 186 177 169 165 160 157 156 153 141 135 134 147 160 159 157 177 163 176 196 178 173 181 174 177 183 189 191 210 186 180 212 188 209 228 220 249 272 274 231 249 268 265 298 293 279 292 298 292 283 287 300 313 300
157 157 155 152 155 155 151 146 150 137 135 148 150 151 153 169 179 179 185 168 160 176 173 177 183 183 175 195 225 160 156 157 187 208 217 216 238 292 25 338 292 325 291 315 302 313 311 318 304 289 289 292 290 293
151 153 153 148 144 144 145 146 134 116 125 149 162 174 180 183 186 183 169 157 162 163 166 172 182 192 178 184 172 156 169 192 217 222 225 226 232 277 278 308 329 338 339 350 343 328 326 327 329 333 320 308 296 289
140 138 137 139 138 137 139 143 136 109 106 113 130 139 149 155 166 167 166 161 155 155 154 151 175 183 171 168 176 178 182 191 152 127 150 202 273 255 339 328 302 298 295 304 314 315 311 314 318 316 310 305 305 304
135 136 132 128 126 120 114 119 124 109 112 126 127 129 129 127 136 144 151 150 155 155 160 160 158 159 163 176 183 189 194 190 200 253 228 236 264 271 293 303 305 298 297 298 298 294 290 291 295 301 302 296 291 292
132 131 129 119 110 92 82 93 98 112 133 123 123 127 130 136 143 152 157 154 153 154 152 150 155 159 138 142 208 223 210 235 230 234 270 272 272 287 302 305 306 307 306 304 301 297 294 292 291 289 289 286 281 278
129 123 117 114 114 94 118 133 128 113 124 127 118 136 127 120 139 154 156 155 153 157 157 143 143 140 163 97 207 124 145 162 228 258 273 265 274 286 290 294 296 296 295 294 293 293 291 288 284 281 279 278 277 276
122 116 113 116 121 127 131 138 137 131 123 133 133 132 121 112 131 142 156 166 162 167 129 142 130 125 119 134 123 161 190 245 265 272 278 284 287 291 291 298 307 314 316 315 311 308 304 299 298 294 288 282 277 274
131 122 118 114 119 128 132 139 146 141 137 132 133 126 116 96 115 146 137 149 142 154 148 135 141 132 142 154 222 281 299 286 290 309 315 317 323 330 326 324 332 340 341 336 324 313 307 306 306 297 287 281 275 275
119 116 115 120 127 131 132 135 147 145 138 132 125 125 124 127 116 124 127 124 123 130 139 138 133 133 159 325 348 343 351 1 1 356 1 7 2 354 350 346 346 347 343 341 338 333 326 323 319 312 311 304 281 268
114 110 119 128 128 127 128 127 126 132 131 132 129 122 124 125 128 131 136 129 120 125 124 137 137 135 113 86 94 53 16 12 25 21 14 18 14 6 1 7 9 4 359 353 347 343 338 333 324 322 318 308 310 293
109 118 131 121 114 125 127 121 132 138 130 121 124 127 131 132 134 134 130 129 126 130 131 126 118 107 105 98 74 47 20 24 24 16 8 359 353 348 352 360 2 2 3 1 358 356 351 343 337 331 329 329 316 314
114 116 125 130 127 130 130 126 124 130 131 129 129 127 131 130 125 121 123 123 122 121 115 111 108 108 97 80 56 17 358 7 2 351 353 352 351 350 347 345 349 351 355 358 4 4 360 1 2 354 342 334 337 331
115 115 117 121 122 124 130 132 128 127 130 131 126 124 126 124 120 119 119 120 116 112 106 103 95 73 51 30 25 7 348 354 356 348 343 350 355 3 8 8 4 1 358 354 356 357 0 4 8 12 12 2 346 334
121 121 119 118 122 123 126 127 128 127 122 118 116 114 107 108 117 118 119 111 106 102 98 83 73 53 20 4 3 355 350 355 356 346 341 342 341 345 352 355 355 353 353 355 355 354 357 1 3 5 8 9 11 9
108 110 109 112 114 115 114 113 113 112 113 117 118 117 117 128 135 115 105 99 85 63 50 49 42 19 356 345 348 345 341 339 341 342 340 338 334 329 329 330 332 336 341 345 351 357 357 357 360 1 1 3 3 3
107 107 109 109 110 115 117 118 117 117 117 119 117 112 108 109 109 104 95 79 45 19 7 7 12 9 356 353 352 350 347 341 338 335 334 332 329 329 331 333 334 337 342 345 345 351 354 357 359 358 356 357 1 2
110 107 111 109 108 112 113 114 113 111 113 112 108 106 104 102 98 91 77 53 19 20 31 20 4 357 350 344 341 342 345 345 345 345 345 343 340 337 337 338 338 337 339 341 340 343 346 349 349 353 356 355 356 357
105 105 110 106 108 112 111 108 107 104 101 100 97 93 87 77 66 63 67 68 52 16 353 344 343 347 345 347 349 351 354 356 353 350 349 347 345 341 339 337 335 337 339 339 340 341 343 346 348 350 352 353 352 351
110 109 106 106 107 104 102 98 94 90 88 86 82 75 65 53 40 22 9 2 356 355 352 348 351 355 357 1 358 353 350 348 345 344 343 343 342 342 343 342 340 339 339 341 341 341 344 344 346 349 350 350 350 349
110 109 107 105 102 97 93 90 85 80 74 69 62 53 48 45 37 25 17 9 7 10 8 2 357 352 348 347 347 348 351 352 351 349 347 345 344 343 342 341 341 341 341 342 343 344 346 347 348 348 345 342 342 345